SATELIOT_2

Last updated on Mon Sep 16 2024 00:02:03 GMT+0000 (Coordinated Universal Time)

1 60534U 24149BU 24258.87918178 .00006382 00000+0 63954-3 0 9996 2 60534 97.7475 333.8606 0001827 91.9499 268.1929 14.91699425 4334

Satellite not in orbit

SATELIOT_2